SCP
-0 -0 -0 -0 -0 -0 -0 -0 -0 -0 -0 -0 -0 -0 -0 -0 0 0 0 0 -0 0 0 0 -0 -0 -0 -0 -0 -0 -0 -0 -0 -0 -0 -0 -0 -0 -0 -0 0 -0 -0
-0 -0 -0 -0 -0 -0 -0 -0 -0 -0 -0 -0 -0 -0 -0 0 0 0 0 0 -0 0 0 0 -0 0 0 0 0 0 0 -0 0 -0 -0 -0 -0 -0 -0 -0 -0 -0 -0
-0 -0 -0 -0 -0 -0 -0 -0 -0 -0 -0 -0 -0 -0 0 0 0 0 0 0 0 0 0 -0 -0 -0 0 0 0 0 0 0 0 -0 -0 -0 -0 -0 0 0 0 -0 -0
-0 -0 -0 -0 -0 -0 -0 -0 -0 -0 -0 -0 -0 0 0 0 0 0 0 0 0 0 -0 -0 -0 0 0 0 0 0 0 0 -0 -0 0 -0 -0 -0 0 0 0 0 0
-0 -0 -0 -0 -0 -0 -0 -0 -0 -0 -0 -0 0 0 -0 -0 -0 -0 -0 0 0 0 -0 0 0 0 0 0 0 0 0 0 -0 -0 0 -0 -0 -0 -0 -0 -0 0 0
-0 -0 -0 -0 -0 0 -0 -0 -0 -0 0 0 0 -0 -0 -0 -0 -0 -0 -0 -0 -0 0 0 0 0 0 0 0 0 0 0 -0 0 0 0 0 -0 -0 0 0 0 0
-0 -0 -0 -0 -0 0 0 -0 0 0 0 0 -0 -0 0 0 -0 -0 -0 -0 -0 0 0 0 0 0 0 0 0 0 0 0 -0 0 0 -0 0 -0 -0 -0 0 0 0
-0 -0 -0 -0 -0 0 0 0 0 0 0 0 0 0 0 0 0 -0 -0 0 0 0 0 0 0 0 0 0 0 0 0 -0 -0 0 0 0 -0 -0 -0 0 0 0 0
-0 -0 -0 -0 -0 0 0 0 0 0 0 -0 0 0 0 0 0 0 0 0 0 0 0 0 0 0 0 0 0 0 0 -0 -0 0 0 -0 -0 -0 -0 -0 -0 0 0
-0 -0 -0 -0 -0 0 0 0 -0 -0 -0 0 0 0 0 0 0 0 0 0 0 0 0 0 0 0 0 0 0 0 0 -0 -0 -0 0 -0 -0 -0 -0 -0 -0 -0 -0
-0 -0 0 -0 -0 -0 0 0 -0 -0 -0 0 0 0 0 0 0 0 0 0 0 0 0 0 0 0 0 0 0 0 0 0 0 -0 -0 -0 -0 -0 -0 -0 -0 -0 -0
-0 -0 0 0 -0 -0 0 0 0 -0 -0 -0 0 0 0 0 0 0 0 0 0 0 0 0 0 0 0 0 0 -0 -0 0 -0 -0 -0 -0 -0 -0 -0 -0 -0 -0 -0
-0 0 0 0 0 0 0 -0 -0 -0 -0 -0 0 0 0 0 0 0 0 0 0 0 0 0 0 -0 0 0 0 0 0 0 0 0 -0 -0 -0 -0 -0 -0 -0 -0 -0
0 0 0 0 0 0 0 -0 0 -0 -0 -0 0 0 0 0 0 0 0 0 0 0 0 0 0 0 0 0 0 0 0 0 0 0 0 0 0 0 0 -0 -0 -0 -0
0 0 0 0 0 0 0 0 0 -0 0 -0 0 0 0 0 0 0 0 0 0 0 0 0 0 0 0 0 0 0 0 0 0 0 0 0 0 0 0 0 0 0 -0
0 0 0 0 0 0 0 0 0 0 0 0 0 0 0 0 0 0 0 0 0 0 0 0 0 0 0 0 0 0 0 0 0 0 0 0 0 -0 -0 -0 0 0 0
0 0 0 0 0 0 0 0 0 0 0 0 0 0 0 0 0 0 0 0 0 0 0 0 0 0 0 0 0 0 0 0 0 0 0 0 0 -0 -0 -0 -0 -0 0
0 0 0 0 0 0 0 0 0 0 0 0 0 0 0 0 0 1 0 0 0 0 0 0 0 0 0 0 0 0 1 1 0 0 0 0 0 0 0 0 0 0 0
0 0 0 0 0 0 0 0 0 0 0 0 0 0 0 0 0 1 0 0 0 0 0 0 0 0 0 0 0 0 0 0 0 0 0 0 0 0 0 0 0 0 0
0 0 0 0 0 0 0 1 0 1 1 0 0 0 0 0 0 0 0 1 0 0 0 0 0 0 0 0 0 0 0 0 0 0 0 0 0 0 0 0 0 0 0
0 0 0 0 1 0 0 0 0 0 1 0 0 0 0 0 0 1 1 1 0 0 0 1 1 0 0 0 0 0 0 0 0 0 0 0 0 0 0 0 0 0 0
1 0 0 0 1 1 1 1 0 0 0 0 1 0 0 0 0 1 1 1 1 1 1 1 0 0 0 0 0 0 0 0 0 0 0 0 0 0 0 0 0 0 0
1 1 1 1 1 2 2 2 1 1 1 1 1 1 1 1 1 1 1 1 1 1 1 1 0 0 0 0 0 0 0 0 0 0 0 0 0 0 0 0 0 0 0
1 1 1 1 1 1 2 2 2 2 1 0 0 0 0 0 0 0 1 1 1 1 2 0 0 0 0 0 0 0 0 0 0 0 0 0 0 0 0 0 0 0 0
0 1 1 1 1 1 1 1 1 0 0 1 0 0 0 0 0 0 0 0 0 1 1 1 0 0 0 0 0 0 0 0 0 0 0 0 0 0 0 0 0 0 0
0 0 0 0 0 0 1 1 1 0 0 0 0 0 0 0 0 0 0 0 0 0 0 0 0 0 0 0 0 0 0 0 0 0 0 0 0 0 0 0 0 0 0
Wind_Speed_500mb
34 39 44 37 34 37 41 45 46 44 40 36 32 29 32 34 34 33 33 32 30 31 32 33 33 34 35 34 33 30 30 31 33 35 36 35 35 33 31 41 31 26 25
44 43 46 39 36 39 44 47 47 45 40 35 31 33 38 36 35 32 31 32 31 32 33 33 35 34 34 33 34 33 30 29 32 36 36 36 36 34 32 32 32 28 27
47 46 48 41 38 40 44 47 47 44 39 35 35 41 40 37 34 32 30 30 30 31 30 31 31 30 29 30 31 33 32 30 30 38 44 24 29 33 32 31 32 31 29
48 49 47 46 41 42 43 45 48 45 40 38 43 43 39 36 33 31 28 27 26 27 28 30 28 26 25 23 23 24 28 30 32 38 26 24 26 30 31 31 31 30 28
50 50 50 49 45 46 45 46 46 44 42 44 46 42 38 36 32 30 28 26 27 28 30 29 28 26 27 26 25 24 25 27 37 30 24 22 22 27 29 30 29 28 30
49 49 51 50 49 47 46 46 46 45 46 49 45 41 37 34 33 29 26 24 24 28 30 28 26 25 22 21 22 23 23 28 32 19 20 27 19 24 26 29 27 26 26
51 48 54 51 50 49 47 47 50 50 49 48 43 39 36 34 32 27 24 23 22 25 27 26 24 20 18 16 16 16 18 24 20 15 18 21 18 21 23 24 24 23 23
50 49 51 53 50 49 50 51 53 54 52 46 42 39 36 33 31 26 23 22 21 22 24 23 19 16 13 12 12 12 14 15 24 16 15 15 18 20 20 21 22 21 20
44 48 49 51 53 52 50 52 54 53 49 45 41 39 35 32 30 27 22 21 21 21 20 18 15 14 12 10 9 8 10 15 15 11 15 11 16 18 18 17 17 17 16
46 45 48 50 51 53 54 54 54 52 47 44 41 39 36 32 29 26 21 20 21 20 19 18 16 14 14 13 11 12 11 16 12 9 13 10 10 14 15 15 14 13 13
46 47 45 48 50 48 48 57 57 54 49 45 43 40 36 25 26 23 25 23 23 21 20 19 17 13 13 11 7 5 7 6 11 9 8 6 7 9 10 9 9 7 8
52 51 48 48 49 49 46 49 55 53 49 44 39 39 29 27 25 25 26 26 25 24 23 21 17 16 16 6 10 9 8 6 8 9 13 10 7 4 4 3 2 1 1
54 54 53 52 50 50 47 46 48 45 42 39 37 34 31 28 30 27 22 23 22 25 15 20 18 12 15 13 10 9 9 7 5 6 15 16 10 6 3 3 5 7 8
49 49 50 51 52 51 46 46 46 46 45 41 39 38 32 31 29 30 27 27 26 21 24 23 20 21 16 13 12 9 6 6 6 8 15 20 16 12 9 10 11 12 14
47 48 48 51 51 53 50 48 47 47 46 42 40 38 34 32 32 31 30 28 26 27 24 25 24 20 16 13 9 7 6 7 9 11 17 20 17 15 14 15 16 16 18
45 47 50 53 52 52 52 49 50 49 45 44 41 37 38 36 35 33 32 30 29 27 26 25 23 20 18 15 12 8 7 7 9 11 12 17 21 21 19 20 21 18 14
44 44 52 55 53 52 54 50 48 48 47 47 45 42 45 46 39 37 34 34 32 29 28 26 25 22 17 14 14 9 9 10 10 22 15 13 18 24 21 20 16 11 11
39 46 51 53 56 57 53 53 46 46 48 47 47 43 54 55 45 47 39 37 35 32 31 27 25 22 19 17 13 13 22 21 25 27 25 29 24 23 23 21 18 18 14
38 44 51 53 54 55 54 48 46 45 47 48 47 47 47 53 52 50 43 40 47 42 36 34 32 28 22 17 17 24 24 22 20 25 27 30 29 24 24 22 21 19 13
32 42 47 53 55 57 53 55 48 48 47 46 47 48 49 53 54 64 45 45 50 40 39 37 34 32 26 21 22 19 27 26 23 23 28 30 26 19 18 8 11 23 19
35 39 42 53 58 57 56 53 54 54 53 52 52 52 54 57 54 66 51 60 56 46 44 51 49 48 35 27 26 18 28 32 33 23 27 24 13 11 9 11 10 5 1
29 42 43 47 52 57 56 61 49 50 48 49 51 52 55 59 62 70 65 61 68 58 64 62 59 46 33 37 30 26 19 22 30 26 18 18 16 13 11 14 14 15 12
12 35 39 42 45 51 58 52 48 44 43 49 63 73 77 76 77 79 80 79 74 68 68 68 64 59 39 40 44 32 22 24 29 24 24 23 21 18 16 13 12 13 13
4 11 26 33 39 47 51 57 59 60 52 46 49 58 78 82 83 84 84 83 82 78 68 72 68 64 53 46 50 49 40 22 31 26 27 24 24 21 18 14 13 13 11
9 11 19 27 35 41 41 44 46 43 40 64 53 55 62 81 89 90 91 90 90 85 86 80 73 67 63 51 50 50 55 34 30 25 41 36 30 28 23 19 18 13 14
8 6 5 19 29 31 34 41 52 54 52 51 70 85 72 77 78 82 85 89 89 91 90 81 76 67 67 69 54 47 47 48 38 37 31 47 40 29 24 21 20 19 14
Wind_Direction_500mb
166 170 167 169 163 161 168 169 163 162 160 155 150 144 138 137 138 133 130 124 122 120 115 110 108 107 103 98 95 98 98 98 97 97 98 100 103 105 109 104 84 100 107
162 168 167 170 165 165 172 174 169 167 164 158 153 146 139 138 135 137 133 128 125 123 117 112 114 109 104 96 89 87 89 94 93 93 89 92 93 99 103 109 111 107 105
162 165 167 169 168 168 173 176 174 170 167 163 154 143 136 132 133 136 134 131 129 127 122 122 120 113 109 100 92 86 86 91 94 91 83 90 92 92 96 100 104 106 109
162 164 167 169 169 170 173 175 176 173 171 164 153 144 138 135 135 136 138 135 135 136 133 127 122 118 113 107 98 91 87 88 97 86 97 100 98 93 94 94 96 98 99
162 165 171 168 168 169 172 175 177 175 167 160 153 147 144 142 141 139 136 134 136 138 140 135 127 119 112 104 97 92 92 92 87 87 106 103 107 102 101 101 98 100 100
163 166 172 168 169 169 170 172 175 171 165 159 156 153 149 147 147 143 139 135 135 135 142 139 131 122 112 102 95 91 91 97 93 101 108 112 123 111 109 105 104 103 102
164 167 173 171 169 172 172 170 169 167 164 161 158 157 155 154 153 151 146 141 141 140 143 143 138 127 116 108 103 95 90 98 99 104 105 110 118 112 109 109 109 106 103
167 168 172 174 172 174 171 170 167 166 164 164 164 164 162 161 159 158 155 150 149 147 149 148 146 137 127 120 108 99 97 102 91 122 112 114 107 112 114 115 116 114 112
172 169 172 175 176 176 175 174 170 169 169 168 171 169 169 169 167 168 169 162 163 159 160 159 159 148 144 143 129 128 115 105 122 128 116 119 101 105 109 111 113 115 116
176 177 175 175 177 179 179 180 176 174 175 175 177 176 176 178 178 178 179 179 178 173 172 169 165 157 152 149 141 124 115 118 122 137 121 174 102 100 103 106 110 115 118
183 182 181 180 180 179 183 183 182 180 182 181 182 182 181 180 183 179 182 188 188 182 178 172 167 163 159 154 162 157 142 129 147 151 147 157 124 100 96 96 97 102 117
185 186 184 184 184 181 186 191 184 186 187 186 186 189 181 188 183 180 196 194 191 185 180 178 168 152 130 144 135 113 90 176 166 158 196 188 172 138 97 68 50 13 244
188 187 185 184 187 185 187 190 187 188 192 193 192 192 184 196 199 188 196 192 191 187 181 180 170 153 173 164 158 161 154 154 160 160 234 202 198 197 227 248 274 273 266
191 193 190 189 187 186 188 189 189 192 195 199 200 196 196 188 199 195 193 194 186 189 194 182 191 185 175 165 186 180 184 184 214 212 245 207 210 210 233 250 266 266 263
196 196 196 195 193 190 187 190 190 197 198 203 206 204 198 197 201 202 200 197 196 201 193 191 192 183 186 182 193 191 200 194 196 198 233 209 227 232 249 258 265 268 266
198 199 201 202 201 195 194 194 193 197 202 202 209 208 200 198 205 203 209 200 201 200 200 199 198 187 188 195 200 190 185 195 182 184 219 212 220 227 243 257 269 258 255
204 202 204 202 207 200 203 198 195 201 200 205 209 208 208 205 208 202 209 207 207 204 203 197 196 196 193 200 201 197 195 194 200 191 180 203 219 225 239 253 247 241 260
211 210 205 206 205 208 207 208 204 206 206 208 212 213 216 214 208 210 210 211 210 207 204 203 205 203 203 207 214 191 199 191 195 209 210 209 214 219 224 235 241 280 280
220 215 210 206 207 208 209 214 213 214 213 216 214 214 222 216 214 212 213 216 218 220 216 210 206 205 212 206 211 229 214 206 200 221 215 212 209 222 230 239 259 272 228
220 214 216 210 207 210 210 212 217 217 222 220 221 220 219 219 218 222 214 217 224 218 217 211 208 212 212 205 203 208 214 209 194 207 204 200 213 207 227 209 250 249 245
227 218 215 214 220 210 212 213 214 216 220 224 223 223 222 222 220 225 215 223 224 215 214 221 222 227 217 196 180 196 207 203 196 195 209 210 188 176 187 168 137 96 218
224 222 216 214 219 226 221 222 218 221 223 227 226 229 230 228 223 227 221 226 229 224 224 225 225 224 212 205 207 199 192 206 209 179 177 172 172 165 157 168 182 167 132
232 225 222 220 218 220 218 220 219 221 226 226 224 225 229 232 232 235 233 233 233 226 227 228 229 229 217 214 206 209 202 220 185 197 178 181 179 174 171 170 161 159 154
333 227 234 229 223 226 225 223 222 228 229 240 245 248 243 241 240 239 238 235 235 230 226 229 229 231 222 215 215 209 209 216 183 177 188 181 179 171 163 162 162 160 138
36 295 229 240 242 244 242 248 243 238 252 257 248 247 244 244 242 239 236 235 235 232 232 232 230 230 228 215 217 213 222 210 200 199 181 182 189 180 176 171 165 167 162
13 348 293 250 241 240 243 242 251 255 257 261 248 251 251 249 242 235 234 235 234 233 231 229 230 231 226 219 216 214 211 205 207 195 191 188 186 180 182 185 175 172 167
Wind_Speed_850mb
34 39 44 37 34 37 41 45 46 44 40 36 32 29 32 34 34 33 33 32 30 31 32 33 33 34 35 34 33 30 30 31 33 35 36 35 35 33 31 41 31 26 25
44 43 46 39 36 39 44 47 47 45 40 35 31 33 38 36 35 32 31 32 31 32 33 33 35 34 34 33 34 33 30 29 32 36 36 36 36 34 32 32 32 28 27
47 46 48 41 38 40 44 47 47 44 39 35 35 41 40 37 34 32 30 30 30 31 30 31 31 30 29 30 31 33 32 30 30 38 44 24 29 33 32 31 32 31 29
48 49 47 46 41 42 43 45 48 45 40 38 43 43 39 36 33 31 28 27 26 27 28 30 28 26 25 23 23 24 28 30 32 38 26 24 26 30 31 31 31 30 28
50 50 50 49 45 46 45 46 46 44 42 44 46 42 38 36 32 30 28 26 27 28 30 29 28 26 27 26 25 24 25 27 37 30 24 22 22 27 29 30 29 28 30
49 49 51 50 49 47 46 46 46 45 46 49 45 41 37 34 33 29 26 24 24 28 30 28 26 25 22 21 22 23 23 28 32 19 20 27 19 24 26 29 27 26 26
51 48 54 51 50 49 47 47 50 50 49 48 43 39 36 34 32 27 24 23 22 25 27 26 24 20 18 16 16 16 18 24 20 15 18 21 18 21 23 24 24 23 23
50 49 51 53 50 49 50 51 53 54 52 46 42 39 36 33 31 26 23 22 21 22 24 23 19 16 13 12 12 12 14 15 24 16 15 15 18 20 20 21 22 21 20
44 48 49 51 53 52 50 52 54 53 49 45 41 39 35 32 30 27 22 21 21 21 20 18 15 14 12 10 9 8 10 15 15 11 15 11 16 18 18 17 17 17 16
46 45 48 50 51 53 54 54 54 52 47 44 41 39 36 32 29 26 21 20 21 20 19 18 16 14 14 13 11 12 11 16 12 9 13 10 10 14 15 15 14 13 13
46 47 45 48 50 48 48 57 57 54 49 45 43 40 36 25 26 23 25 23 23 21 20 19 17 13 13 11 7 5 7 6 11 9 8 6 7 9 10 9 9 7 8
52 51 48 48 49 49 46 49 55 53 49 44 39 39 29 27 25 25 26 26 25 24 23 21 17 16 16 6 10 9 8 6 8 9 13 10 7 4 4 3 2 1 1
54 54 53 52 50 50 47 46 48 45 42 39 37 34 31 28 30 27 22 23 22 25 15 20 18 12 15 13 10 9 9 7 5 6 15 16 10 6 3 3 5 7 8
49 49 50 51 52 51 46 46 46 46 45 41 39 38 32 31 29 30 27 27 26 21 24 23 20 21 16 13 12 9 6 6 6 8 15 20 16 12 9 10 11 12 14
47 48 48 51 51 53 50 48 47 47 46 42 40 38 34 32 32 31 30 28 26 27 24 25 24 20 16 13 9 7 6 7 9 11 17 20 17 15 14 15 16 16 18
45 47 50 53 52 52 52 49 50 49 45 44 41 37 38 36 35 33 32 30 29 27 26 25 23 20 18 15 12 8 7 7 9 11 12 17 21 21 19 20 21 18 14
44 44 52 55 53 52 54 50 48 48 47 47 45 42 45 46 39 37 34 34 32 29 28 26 25 22 17 14 14 9 9 10 10 22 15 13 18 24 21 20 16 11 11
39 46 51 53 56 57 53 53 46 46 48 47 47 43 54 55 45 47 39 37 35 32 31 27 25 22 19 17 13 13 22 21 25 27 25 29 24 23 23 21 18 18 14
38 44 51 53 54 55 54 48 46 45 47 48 47 47 47 53 52 50 43 40 47 42 36 34 32 28 22 17 17 24 24 22 20 25 27 30 29 24 24 22 21 19 13
32 42 47 53 55 57 53 55 48 48 47 46 47 48 49 53 54 64 45 45 50 40 39 37 34 32 26 21 22 19 27 26 23 23 28 30 26 19 18 8 11 23 19
35 39 42 53 58 57 56 53 54 54 53 52 52 52 54 57 54 66 51 60 56 46 44 51 49 48 35 27 26 18 28 32 33 23 27 24 13 11 9 11 10 5 1
29 42 43 47 52 57 56 61 49 50 48 49 51 52 55 59 62 70 65 61 68 58 64 62 59 46 33 37 30 26 19 22 30 26 18 18 16 13 11 14 14 15 12
12 35 39 42 45 51 58 52 48 44 43 49 63 73 77 76 77 79 80 79 74 68 68 68 64 59 39 40 44 32 22 24 29 24 24 23 21 18 16 13 12 13 13
4 11 26 33 39 47 51 57 59 60 52 46 49 58 78 82 83 84 84 83 82 78 68 72 68 64 53 46 50 49 40 22 31 26 27 24 24 21 18 14 13 13 11
9 11 19 27 35 41 41 44 46 43 40 64 53 55 62 81 89 90 91 90 90 85 86 80 73 67 63 51 50 50 55 34 30 25 41 36 30 28 23 19 18 13 14
8 6 5 19 29 31 34 41 52 54 52 51 70 85 72 77 78 82 85 89 89 91 90 81 76 67 67 69 54 47 47 48 38 37 31 47 40 29 24 21 20 19 14
Wind_Direction_850mb
166 170 167 169 163 161 168 169 163 162 160 155 150 144 138 137 138 133 130 124 122 120 115 110 108 107 103 98 95 98 98 98 97 97 98 100 103 105 109 104 84 100 107
162 168 167 170 165 165 172 174 169 167 164 158 153 146 139 138 135 137 133 128 125 123 117 112 114 109 104 96 89 87 89 94 93 93 89 92 93 99 103 109 111 107 105
162 165 167 169 168 168 173 176 174 170 167 163 154 143 136 132 133 136 134 131 129 127 122 122 120 113 109 100 92 86 86 91 94 91 83 90 92 92 96 100 104 106 109
162 164 167 169 169 170 173 175 176 173 171 164 153 144 138 135 135 136 138 135 135 136 133 127 122 118 113 107 98 91 87 88 97 86 97 100 98 93 94 94 96 98 99
162 165 171 168 168 169 172 175 177 175 167 160 153 147 144 142 141 139 136 134 136 138 140 135 127 119 112 104 97 92 92 92 87 87 106 103 107 102 101 101 98 100 100
163 166 172 168 169 169 170 172 175 171 165 159 156 153 149 147 147 143 139 135 135 135 142 139 131 122 112 102 95 91 91 97 93 101 108 112 123 111 109 105 104 103 102
164 167 173 171 169 172 172 170 169 167 164 161 158 157 155 154 153 151 146 141 141 140 143 143 138 127 116 108 103 95 90 98 99 104 105 110 118 112 109 109 109 106 103
167 168 172 174 172 174 171 170 167 166 164 164 164 164 162 161 159 158 155 150 149 147 149 148 146 137 127 120 108 99 97 102 91 122 112 114 107 112 114 115 116 114 112
172 169 172 175 176 176 175 174 170 169 169 168 171 169 169 169 167 168 169 162 163 159 160 159 159 148 144 143 129 128 115 105 122 128 116 119 101 105 109 111 113 115 116
176 177 175 175 177 179 179 180 176 174 175 175 177 176 176 178 178 178 179 179 178 173 172 169 165 157 152 149 141 124 115 118 122 137 121 174 102 100 103 106 110 115 118
183 182 181 180 180 179 183 183 182 180 182 181 182 182 181 180 183 179 182 188 188 182 178 172 167 163 159 154 162 157 142 129 147 151 147 157 124 100 96 96 97 102 117
185 186 184 184 184 181 186 191 184 186 187 186 186 189 181 188 183 180 196 194 191 185 180 178 168 152 130 144 135 113 90 176 166 158 196 188 172 138 97 68 50 13 244
188 187 185 184 187 185 187 190 187 188 192 193 192 192 184 196 199 188 196 192 191 187 181 180 170 153 173 164 158 161 154 154 160 160 234 202 198 197 227 248 274 273 266
191 193 190 189 187 186 188 189 189 192 195 199 200 196 196 188 199 195 193 194 186 189 194 182 191 185 175 165 186 180 184 184 214 212 245 207 210 210 233 250 266 266 263
196 196 196 195 193 190 187 190 190 197 198 203 206 204 198 197 201 202 200 197 196 201 193 191 192 183 186 182 193 191 200 194 196 198 233 209 227 232 249 258 265 268 266
198 199 201 202 201 195 194 194 193 197 202 202 209 208 200 198 205 203 209 200 201 200 200 199 198 187 188 195 200 190 185 195 182 184 219 212 220 227 243 257 269 258 255
204 202 204 202 207 200 203 198 195 201 200 205 209 208 208 205 208 202 209 207 207 204 203 197 196 196 193 200 201 197 195 194 200 191 180 203 219 225 239 253 247 241 260
211 210 205 206 205 208 207 208 204 206 206 208 212 213 216 214 208 210 210 211 210 207 204 203 205 203 203 207 214 191 199 191 195 209 210 209 214 219 224 235 241 280 280
220 215 210 206 207 208 209 214 213 214 213 216 214 214 222 216 214 212 213 216 218 220 216 210 206 205 212 206 211 229 214 206 200 221 215 212 209 222 230 239 259 272 228
220 214 216 210 207 210 210 212 217 217 222 220 221 220 219 219 218 222 214 217 224 218 217 211 208 212 212 205 203 208 214 209 194 207 204 200 213 207 227 209 250 249 245
227 218 215 214 220 210 212 213 214 216 220 224 223 223 222 222 220 225 215 223 224 215 214 221 222 227 217 196 180 196 207 203 196 195 209 210 188 176 187 168 137 96 218
224 222 216 214 219 226 221 222 218 221 223 227 226 229 230 228 223 227 221 226 229 224 224 225 225 224 212 205 207 199 192 206 209 179 177 172 172 165 157 168 182 167 132
232 225 222 220 218 220 218 220 219 221 226 226 224 225 229 232 232 235 233 233 233 226 227 228 229 229 217 214 206 209 202 220 185 197 178 181 179 174 171 170 161 159 154
333 227 234 229 223 226 225 223 222 228 229 240 245 248 243 241 240 239 238 235 235 230 226 229 229 231 222 215 215 209 209 216 183 177 188 181 179 171 163 162 162 160 138
36 295 229 240 242 244 242 248 243 238 252 257 248 247 244 244 242 239 236 235 235 232 232 232 230 230 228 215 217 213 222 210 200 199 181 182 189 180 176 171 165 167 162
13 348 293 250 241 240 243 242 251 255 257 261 248 251 251 249 242 235 234 235 234 233 231 229 230 231 226 219 216 214 211 205 207 195 191 188 186 180 182 185 175 172 167